[[{"header":{"parameterUnit":"m.s-1","parameterCategory":1,"la1":30.2992,"la2":30.254,"lo1":-89.0895,"lo2":-89.0443,"dy":0.0025,"dx":0.0025,"nx":19,"ny":19,"refTime":"2026-04-16T09:00:00:Z","depth":0,"parameterNumber":2,"parameterNumberName":"U-component_of_WINDS"},"data":[0,0,0,1.1946,1.1948,1.2,1.2,1.2065,1.2066,0,0,0,0,0,0,0,0,0,0,0,1.1932,1.1933,1.1946,1.1948,1.2,1.2,1.2065,1.2066,0,0,0,0,0,0,0,0,0,0,0,1.1932,1.1933,1.1933,1.1948,1.2,1.2,1.2065,1.2026,0,0,0,0,0,0,0,0,0,0,1.1975,1.1964,1.1933,1.1933,1.1948,1.2,1.2,1.2024,1.2028,1.2042,0,1.2056,0,1.2062,1.2071,1.2071,0,0,0,1.1946,1.1961,1.1974,1.1934,1.1949,1.2,1.1976,1.2026,1.2031,1.2048,1.2057,1.206,1.2063,1.2071,1.2071,1.2158,1.2159,0,0,1.1943,1.1942,1.197,1.1977,1.1971,1.1974,1.1977,1.2029,1.2039,1.2058,1.2061,1.2065,1.2071,1.2072,1.2158,1.2158,0,0,0,1.1936,1.194,1.1952,1.1974,1.1984,1.1976,1.198,1.2037,1.2041,1.2062,1.2065,1.2072,1.2073,1.2157,1.2158,1.218,0,0,0,1.1934,1.1936,1.1951,1.195,1.1983,1.2011,1.1986,1.2037,1.2043,1.2065,1.2072,1.2073,1.2157,1.2158,1.2178,1.219,0,0,0,1.1928,1.1935,1.1944,1.195,1.1973,1.201,1.2017,1.2038,1.2045,1.2071,1.2074,1.2157,1.2158,1.2177,1.2187,1.2211,0,0,0,1.1922,1.1962,1.1944,1.199,1.1972,1.2024,1.2017,1.2056,1.208,1.2072,1.2157,1.2158,1.2176,1.2186,1.2209,1.223,1.2239,0,0,1.1972,1.1969,1.1996,1.1981,1.2036,1.2016,1.2074,1.2097,1.2101,1.2138,1.2141,1.2179,1.2187,1.2211,1.2292,1.2299,0,0,0,1.2011,1.2031,1.2046,1.207,1.2089,1.2106,1.2121,1.2129,1.2162,1.212,1.2194,1.22,1.2213,1.2223,1.2229,1.224,1.2163,1.2163,1.2163,1.2081,1.2083,1.2128,1.2136,1.2159,1.2173,1.2192,1.2205,1.2201,1.2218,1.2229,1.2278,1.2289,1.2294,1.2305,1.2241,1.2241,1.2241,1.2241,1.2154,1.2181,1.2173,1.2214,1.2215,1.2249,1.2264,1.2259,1.2289,1.227,1.2282,1.226,1.2301,1.2311,1.2243,1.2243,1.2242,1.2242,1.2242,1.2198,1.2211,1.2221,1.2255,1.228,1.2287,1.2316,1.2316,1.2316,1.2329,1.2339,1.2338,1.2337,1.2334,1.2334,1.2334,1.2334,1.2334,1.2334,1.2239,1.225,1.2275,1.2299,1.2313,1.2332,1.2346,1.236,1.2375,1.2372,1.2372,1.2364,1.2306,1.229,1.2337,1.2337,1.2336,1.2336,1.2336,1.231,1.2294,1.2333,1.2347,1.2373,1.2397,1.2398,1.2425,1.2436,1.245,1.244,1.2397,1.2393,1.2388,1.2375,1.2441,1.2441,1.2441,1.2441,1.2346,1.2344,1.2383,1.2406,1.2428,1.2432,1.2473,1.2484,1.2492,1.2499,1.2489,1.2472,1.2468,1.2466,1.246,1.2447,1.253,1.253,1.253,1.2388,1.2389,1.2424,1.2434,1.2454,1.247,1.2508,1.2533,1.2539,1.2534,1.2503,1.2499,1.2472,1.2464,1.2456,1.2446,1.2424,0,0]},{"header":{"parameterUnit":"m.s-1","parameterCategory":1,"la1":30.2992,"la2":30.254,"lo1":-89.0895,"lo2":-89.0443,"dy":0.0025,"dx":0.0025,"nx":19,"ny":19,"refTime":"2026-04-16T09:00:00:Z","depth":0,"parameterNumber":3,"parameterNumberName":"V-component_of_WINDS"},"data":[0,0,0,5.8356,5.8361,5.8592,5.8593,5.8885,5.8887,0,0,0,0,0,0,0,0,0,0,0,5.8291,5.8293,5.8356,5.8362,5.8592,5.8593,5.8884,5.8887,0,0,0,0,0,0,0,0,0,0,0,5.829,5.8293,5.8295,5.8363,5.8592,5.8593,5.8883,5.871,0,0,0,0,0,0,0,0,0,0,5.8486,5.843,5.8292,5.8295,5.8364,5.8591,5.8593,5.8701,5.872,5.8781,0,5.8839,0,5.8868,5.8907,5.8908,0,0,0,5.8359,5.8414,5.8474,5.8296,5.8366,5.8591,5.8487,5.8712,5.8734,5.8806,5.8843,5.8854,5.8873,5.8909,5.891,5.9277,5.9279,0,0,5.8346,5.8333,5.8459,5.8488,5.8457,5.848,5.8494,5.8725,5.8763,5.8844,5.886,5.8878,5.8911,5.8913,5.9276,5.9278,0,0,0,5.8312,5.8324,5.8379,5.8476,5.8518,5.8487,5.8503,5.8752,5.8771,5.8864,5.8881,5.8913,5.8916,5.9274,5.9276,5.9357,0,0,0,5.8304,5.8304,5.8373,5.8367,5.8514,5.8639,5.8525,5.8755,5.8782,5.888,5.8913,5.8919,5.9272,5.9275,5.9351,5.9397,0,0,0,5.8275,5.8301,5.8336,5.8366,5.8466,5.8636,5.8668,5.8761,5.8793,5.8908,5.892,5.927,5.9274,5.9345,5.9387,5.9489,0,0,0,5.8239,5.8403,5.8337,5.8526,5.8464,5.8686,5.8667,5.8832,5.894,5.8914,5.9272,5.9276,5.9343,5.9381,5.9483,5.9572,5.9609,0,0,5.8438,5.8426,5.8539,5.8486,5.8717,5.8651,5.8893,5.9003,5.9023,5.919,5.9199,5.9353,5.9387,5.9488,5.982,5.9849,0,0,0,5.8597,5.8677,5.8741,5.8847,5.8937,5.9016,5.9091,5.9132,5.9275,5.9108,5.9418,5.9439,5.9498,5.9541,5.9566,5.9617,5.9296,5.9296,5.9295,5.8859,5.888,5.9066,5.9114,5.9215,5.9291,5.9374,5.9441,5.943,5.9502,5.9552,5.9752,5.9802,5.982,5.9874,5.9602,5.9602,5.9602,5.9602,5.9151,5.9267,5.9251,5.9426,5.9445,5.959,5.9668,5.9656,5.9791,5.9716,5.977,5.9685,5.9852,5.9899,5.9609,5.9608,5.9607,5.9606,5.9606,5.9324,5.9383,5.9432,5.9585,5.97,5.9742,5.9873,5.9885,5.9897,5.995,6.0003,6.0001,6.0,5.9975,5.9976,5.9976,5.9977,5.9977,5.9978,5.9483,5.9536,5.9648,5.9758,5.9826,5.9917,5.9994,6.0061,6.0136,6.0134,6.0135,6.0115,5.9866,5.9802,5.9989,5.9987,5.9985,5.9984,5.9983,5.977,5.9707,5.988,5.9949,6.0078,6.019,6.0204,6.0338,6.0394,6.0458,6.0428,6.0242,6.0229,6.0209,6.0156,6.0424,6.0424,6.0424,6.0424,5.9915,5.9911,6.009,6.0199,6.0306,6.0337,6.0527,6.0588,6.064,6.0675,6.0638,6.057,6.0549,6.0548,6.0522,6.0472,6.0814,6.0815,6.0815,6.0091,6.0098,6.026,6.0314,6.0415,6.0501,6.0679,6.0801,6.0847,6.0831,6.0702,6.0686,6.0575,6.0539,6.0518,6.0476,6.0386,0,0]}]]